Harrow, Ontario

6:27 AM EDT on October 22, 2017 (GMT -0400)
Harrow

Weather History for CXHA - May, 2013

Change the Weather History Date:

Sunday, May 5, 2013

  Actual Average (CYQG) Record (CYQG)
Temperature  
Mean Temperature 62 °F -  
Max Temperature 70 °F 64 °F 82 °F (2000)
Min Temperature 53 °F 46 °F 38 °F (2014)
Degree Days  
Heating Degree Days 4    
Growing Degree Days 12 (Base 50)    
Moisture  
Dew Point 40 °F    
Average Humidity 45    
Maximum Humidity 64    
Minimum Humidity 25    
Precipitation  
Precipitation 0.00 in - - ()
Sea Level Pressure  
Sea Level Pressure 30.05 in    
Wind  
Wind Speed 5 mph ()    
Max Wind Speed 8 mph    
Max Gust Speed 18 mph    
Averages and records for this station are not official NWS values.
T = Trace of Precipitation, MM = Missing Value Source: Averaged Metar Reports

Daily Weather History Graph

Daily Weather History Graph

Search for Another Location

Airport or City:

Trip Planner

Search our weather history database for the weather conditions in past years. The results will help you decide how hot, cold, wet, or windy it might be!

Date:

Astronomy

May. 05, 2013 Rise Set
Actual Time 6:22 AM EDT 8:35 PM EDT
Civil Twilight 5:51 AM EDT 9:06 PM EDT
Nautical Twilight 5:13 AM EDT 9:44 PM EDT
Astronomical Twilight 4:31 AM EDT 10:26 PM EDT
Moon 3:56 AM EDT (5/5) 4:29 PM EDT (5/5)
Length of Visible Light 15h 14m
Length of Day
14h 13m
Waning Crescent, 18% of the Moon is Illuminated
May 5
Waning Crescent
May 9
New
May 18
First Quarter
May 25
Full
May 31
Last Quarter

Hourly Weather History & Observations

Time (EDT) Temp. Dew Point Humidity Pressure Visibility Wind Dir Wind Speed Gust Speed Precip Events Conditions
12:00 AM 57.2 °F 38.7 °F 50% 30.08 in - East 5.8 mph - N/A   Unknown
1:00 AM 57.0 °F 39.2 °F 51% 30.08 in - East 4.6 mph - N/A   Unknown
2:00 AM 55 °F 40 °F 46% 30.07 in - East 3.5 mph - -  
2:00 AM 54.9 °F 40.1 °F 58% 30.07 in - East 3.5 mph - N/A   Unknown
3:00 AM 53.8 °F 41.7 °F 64% 30.06 in - ESE 3.5 mph - N/A   Unknown
4:00 AM 54.9 °F 42.6 °F 63% 30.06 in - ESE 4.6 mph - N/A   Unknown
5:00 AM 54.7 °F 42.4 °F 63% 30.07 in - SE 4.6 mph - N/A   Unknown
6:00 AM 54.5 °F 41.9 °F 62% 30.06 in - ESE 3.5 mph - N/A   Unknown
7:00 AM 56.1 °F 42.1 °F 59% 30.09 in - ESE 2.3 mph - N/A   Unknown
8:00 AM 57 °F 41 °F 45% 30.09 in - SE 5.8 mph - -  
8:00 AM 57.4 °F 41.4 °F 55% 30.09 in - SE 5.8 mph - N/A   Unknown
9:00 AM 59.4 °F 42.1 °F 53% 30.11 in - SE 5.8 mph - N/A   Unknown
10:00 AM 60.6 °F 40.6 °F 48% 30.10 in - ESE 5.8 mph - N/A   Unknown
11:00 AM 61.9 °F 40.5 °F 45% 30.09 in - ESE 5.8 mph - N/A   Unknown
12:00 PM 63.1 °F 39.7 °F 42% 30.09 in - East 6.9 mph - N/A   Unknown
1:00 PM 65.1 °F 40.6 °F 41% 30.07 in - East 8.1 mph - N/A   Unknown
2:00 PM 68 °F 41 °F 26% 30.05 in - ESE 5.8 mph - -  
2:00 PM 68.2 °F 40.8 °F 37% 30.05 in - ESE 5.8 mph - N/A   Unknown
3:00 PM 68.4 °F 36.7 °F 31% 30.05 in - East 8.1 mph 18.4 mph N/A   Unknown
4:00 PM 69.1 °F 40.3 °F 35% 30.03 in - East 6.9 mph - N/A   Unknown
5:00 PM 68.7 °F 38.7 °F 33% 30.02 in - East 6.9 mph - N/A   Unknown
6:00 PM 68.9 °F 38.3 °F 33% 30.01 in - East 5.8 mph - N/A   Unknown
7:00 PM 68.2 °F 36.0 °F 31% 30.00 in - East 8.1 mph - N/A   Unknown
8:00 PM 65 °F 38 °F 25% 30.00 in - East 4.6 mph - -  
8:00 PM 65.3 °F 37.6 °F 36% 30.00 in - East 4.6 mph - N/A   Unknown
9:00 PM 62.1 °F 38.1 °F 41% 30.00 in - ENE 5.8 mph - N/A   Unknown
10:00 PM 59.7 °F 38.8 °F 46% 30.01 in - ENE 4.6 mph - N/A   Unknown
11:00 PM 59.4 °F 42.8 °F 54% 30.02 in - ENE 6.9 mph - N/A   Unknown